Flag for Turkey Weather past 2 weeks in Istanbul, Turkey

Now
79 °F

Sunny.


Feels Like: 80 °F
Forecast: 64 / 77 °F
Wind: 8 mph from North

Location: Istanbul Ataturk Airport

Current Time: May 24, 2015 at 6:27:35 PM

Latest Report: May 24, 2015 at 5:50 PM


Visibility: 10 mi

Pressure: 29.77 "Hg

Humidity: 51%

Dew point: 59 °F

Location of IstanbulLocation

Historic Weather in Istanbul — Graph

°F

Istanbul temperature yesterday

Maximum temperature yesterday: 82 °F (at 5:20 PM)
Minimum temperature yesterday: 61 °F (at 2:50 AM)
Average temperature yesterday: 70 °F

Past Weeks' High & Low Weather Summary

 TemperatureHumidityPressure
High82 °F (May 16, 3:50 PM)94% (May 11, 3:50 AM)30.15 "Hg (May 11, 3:50 AM)
Low55 °F (May 11, 2:50 AM)26% (May 16, 4:50 PM)29.77 "Hg (May 20, 1:20 AM)
Average67 °F63%29.96 "Hg
* Reported May 9 4:20 PM — May 24 4:50 PM, Istanbul, Weather by CustomWeather, © 2015

Note: Actual official high and low records may vary slightly from our data, if they occured in-between our weather recording intervals... More about our weather records

Advertising

Istanbul weather history for previous 24 hours

 ConditionsComfort  
Time TempWeatherWind HumidityBarometerVisibility
4:50 PM
Sun, May 24
79 °FSunny.12 mph54%29.77 "Hg10 mi
4:20 PM79 °FPassing clouds.10 mph54%29.77 "HgN/A
3:50 PM81 °FPassing clouds.10 mph48%29.77 "HgN/A
3:20 PM82 °FPassing clouds.10 mph45%29.77 "HgN/A
2:50 PM82 °FPassing clouds.10 mph48%29.77 "HgN/A
2:20 PM81 °FPassing clouds.9 mph51%29.80 "HgN/A
1:50 PM81 °FSunny.10 mph51%29.80 "Hg10 mi
1:20 PM81 °FPassing clouds.9 mph51%29.80 "HgN/A
12:50 PM81 °FPassing clouds.8 mph48%29.80 "HgN/A
12:20 PM82 °FPassing clouds.8 mph45%29.80 "HgN/A
11:50 AM81 °FSunny.9 mph51%29.80 "Hg10 mi
11:20 AM82 °FPassing clouds.8 mph48%29.80 "HgN/A
10:50 AM81 °FSunny.3 mph51%29.80 "Hg10 mi
10:20 AM79 °FPassing clouds.7 mph54%29.80 "HgN/A
9:50 AM77 °FPassing clouds.8 mph54%29.80 "HgN/A
9:20 AM73 °FPassing clouds.9 mph61%29.80 "HgN/A
8:50 AM72 °FPassing clouds.7 mph65%29.80 "HgN/A
8:20 AM70 °FPassing clouds.7 mph69%29.80 "HgN/A
7:50 AM66 °FSunny.9 mph78%29.80 "Hg10 mi
7:20 AM66 °FSunny.8 mph73%29.80 "Hg10 mi
6:50 AM64 °FSunny.7 mph78%29.80 "Hg10 mi
6:20 AM64 °FClear.9 mph78%29.77 "Hg10 mi
5:50 AM63 °FClear.9 mph77%29.77 "Hg10 mi
5:20 AM64 °FClear.9 mph68%29.77 "Hg10 mi
4:50 AM64 °FClear.9 mph64%29.77 "Hg10 mi
4:20 AM64 °FClear.9 mph64%29.77 "Hg10 mi
3:50 AM64 °FClear.9 mph64%29.80 "Hg10 mi
3:20 AM66 °FClear.9 mph56%29.80 "Hg10 mi
2:50 AM64 °FClear.7 mph64%29.80 "Hg10 mi
2:20 AM66 °FClear.8 mph60%29.80 "Hg10 mi
1:50 AM66 °FClear.9 mph60%29.80 "Hg10 mi
1:20 AM66 °FClear.9 mph60%29.80 "Hg10 mi
12:50 AM68 °FClear.8 mph56%29.83 "Hg10 mi
12:20 AM68 °FPassing clouds.5 mph56%29.83 "HgN/A
11:50 PM
Sat, May 23
70 °FClear.7 mph50%29.83 "Hg10 mi
11:20 PM72 °FPassing clouds.7 mph47%29.83 "HgN/A
10:50 PM70 °FPassing clouds.10 mph53%29.83 "HgN/A
10:20 PM72 °FPassing clouds.8 mph50%29.83 "HgN/A
9:50 PM73 °FClear.9 mph47%29.83 "Hg10 mi
9:20 PM73 °FPassing clouds.10 mph47%29.83 "HgN/A
8:50 PM73 °FPassing clouds.8 mph53%29.83 "HgN/A
8:20 PM77 °FSunny.6 mph51%29.83 "Hg10 mi
7:50 PM79 °FPassing clouds.8 mph45%29.83 "HgN/A
7:20 PM77 °FSunny.6 mph54%29.83 "Hg10 mi
6:50 PM75 °FSunny.5 mph47%29.83 "Hg10 mi
6:20 PM77 °FPassing clouds.5 mph47%29.83 "HgN/A
Weather by CustomWeather, © 2015

See weather overviewHow to use our weather pages